Regional Weather Roundup
Issued by NWS Huntsville, AL

Home | Current Version | Previous Version | Text Only | Print | Product List | Glossary On
Versions: 1 2 3 4 5 6 7 8 9 10 11 12 13 14 15 16 17 18 19 20 21 22 23 24 25 26 27 28
000
ASUS44 KHUN 191210
RWRHUN

WEATHER ROUNDUP FOR THE TENNESSEE VALLEY
NATIONAL WEATHER SERVICE HUNTSVILLE AL
600 AM CST SUN NOV 19 2017

ALZ001>004-191300-
NORTHWEST ALABAMA

CITY           SKY/WX    TMP DP  RH WIND       PRES   REMARKS
COURTLAND HCN    N/A     39 N/A N/A NW5         N/A
RUSSELLVILLE     N/A     34 N/A N/A MISG        N/A
SHOALS AIRPORT CLEAR     39  33  79 NW6       30.11R WCI  35
6HR MIN TEMP:  37; 6HR MAX TEMP:  47;

SHOALS TVA RES   N/A     39 N/A N/A MISG        N/A
$$

ALZ005>007-016-191300-
NORTH CENTRAL ALABAMA

CITY           SKY/WX    TMP DP  RH WIND       PRES   REMARKS
CULLMAN AG STN   N/A     41 N/A N/A NW6         N/A
DECATUR AP     CLEAR     39  34  82 NW7       30.08R WCI  34
6HR MIN TEMP:  39; 6HR MAX TEMP:  47;

HUNTSVILLE AP  PTCLDY    41  35  79 NW7       30.07R
6HR MIN TEMP:  41; 6HR MAX TEMP:  48;

MERIDIANVILLE  CLEAR     37  32  81 CALM      30.06S
REDSTONE ARSN  CLEAR     40  32  74 N8        30.07R WCI  34
VINEMONT AP    FAIR      39  32  76 CALM      30.08S
$$

ALZ008>010-191300-
NORTHEAST ALABAMA

CITY           SKY/WX    TMP DP  RH WIND       PRES   REMARKS
ALBERTVILLE    CLOUDY    43  37  81 NW12      30.03S
FORT PAYNE     CLOUDY    43  32  65 CALM      30.03R
SCOTTSBORO AP  CLOUDY    45  34  65 VRB6      30.06R
SCOTTSBORO HCN   N/A     45 N/A N/A MISG        N/A
VALLEY HEAD      N/A     43 N/A N/A MISG        N/A
$$

TNZ076-096-097-191300-
SOUTHEASTERN MIDDLE TENNESSEE

CITY           SKY/WX    TMP DP  RH WIND       PRES   REMARKS
TULLAHOMA      CLOUDY    41  34  75 NW7       30.04R
WINCHESTER     MOCLDY    39  30  70 N6        30.06R WCI  35
$$

...SURROUNDING SITES...

CITY           SKY/WX    TMP DP  RH WIND       PRES   REMARKS
ATLANTA        MOCLDY    45  36  70 NW16G26   29.97R
ANNISTON       CLEAR     45  33  63 VRB3      30.04R
BIRMINGHAM     PTCLDY    43  34  70 N10       30.09R
CHATTANOOGA    CLOUDY    44  31  60 NW9       30.04R
CORINTH        FAIR      37  32  81 NW7       30.13R WCI  32
DALTON         CLOUDY    43  34  70 N7        30.03R
GADSDEN        CLOUDY    45  37  73 NW5       30.06R
GOLDEN TRNGL   CLEAR     39  35  86 W6        30.16R WCI  35
HALEYVILLE     FAIR      37  35  92 NW8       30.10R WCI  31
JACKSON TN     PTCLDY    38  32  79 NW8       30.14R WCI  32
MEMPHIS        PTCLDY    39  32  76 NW6       30.17R WCI  35
NASHVILLE      CLOUDY    42  31  64 NW6       30.07R
ROME           CLOUDY    45  34  65 NW8       30.02R
SAVANNAH       PTCLDY    37  34  87 NW3       30.11S
SELMER         PTCLDY    36  34  93 NW5       30.12R WCI  32
TUPELO         CLEAR     40  33  76 NW5       30.13R
TUSCALOOSA     LGT RAIN  44  37  76 NW8       30.12R
$$

...GULF COAST WEATHER...

CITY           SKY/WX    TMP DP  RH WIND       PRES   REMARKS
GULFPORT       CLEAR     49  39  68 N16G24    30.10R
PASCAGOULA     CLEAR     49  38  65 N13G25    30.09R
MOBILE         PTCLDY    48  39  71 N17       30.09R
GULF SHORES    MOSUNNY   50  40  68 N10G20    30.05R
PENSACOLA      MOCLDY    52  40  63 N17G25    30.03R
DESTIN         MOCLDY    55  42  61 N17G26    30.00R
PANAMA CITY    PTCLDY    56  47  73 N18G30    29.97R
APPALACHICOLA  CLOUDY    59  55  87 N15       29.93R
$$





USA.gov is the U.S. government's official web portal to all federal, state and local government web resources and services.